Volver al catálogo

FENGYUN 1C DEB

ActivoPO
NORAD 36258·DEBRIS·🇨🇳 China

Lanzado May 10, 1999 desde Taiyuan Satellite Launch Center

Loading…

Próximos Pases (próximas 24 horas)

TLE

ActualizadoSource: Space-Track

Época: Sep 13, 2026, 21:54 UTC

1 36258U 99025DWK 26256.91310495  .00001194  00000-0  14573-3 0  9990
2 36258  99.0535 324.7399 0168805 347.9272  11.7911 14.76191015948800

Sigue FENGYUN 1C DEB en tiempo real con AllMySat

Download on the App Store